Weather in Urazmetyevo

Russia / Perm Krai     56°42′50″N   56°42′12″E
temp.,
°C
wind,
m/s
gust,
m/s
humid.,
%
clouds,
%
prec.,
mm/h
press.,
hPa
HPBL,
m
3 march, wed
wed323:00−8ssw61493100 0.6 998542
02:00−7ssw51194100 0.9 997526
05:00−3sw4996100 1.2 997424
08:00−5sw3896100 0.8 997281
11:00−3wsw4695100 1.3 998376
14:00−2wsw469298 0.2 998652
17:00−2sw469299 0.4 998582
20:00−4sw3797100 0.3 998226
4 march, thu
thu423:00−5sw3797100 1.2 999330
02:00−6w2597100 0.8 998146
05:00−8w3795100 1.0 999269
08:00−14sw359795 0.1 999108
11:00−11sw489596 0.1 999346
14:00−7ssw61193100 0.4 998697
17:00−6ssw51091100 0.7 996738
20:00−6ssw51294100 0.5 995691
5 march, fri
fri523:00−5ssw61294100 1.4 993657
02:00−7ssw2496100 0.3 992125
05:00−6wsw41095100 0.4 995424
08:00−8sw4995100 0.1 997334
11:00−7sw4695100 0.3 999407
14:00−5sw3690100 0.1 999675
17:00−4wsw3488100 0.1 1000662
20:00−8nw2393100 0.0 100079
6 march, sat
sat623:00−12nw3695100 0.0 1002135
02:00−16wnw339733 0.0 100672
05:00−18w239834 0.0 100958
08:00−20wsw339920 0.0 101172
11:00−16wsw369460 0.2 1012321
14:00−12wsw3690100 0.1 1012591
17:00−11sw3590100 0.1 1011581
20:00−16ssw239893 0.1 101140
7 march, sun
sun723:00−19ssw229973 0.1 101120
02:00−20ssw2210055 0.0 100920
05:00−19s129867 0.0 100922
08:00−17ssw229788 0.1 100880
11:00−13ssw359494 0.2 1008270
14:00−10sw478899 0.0 1009644
17:00−11sw589099 0.1 1009667
20:00−14ssw41094100 0.1 1010396